Погода в Хабарах

Россия / Алтайский край     53°37′25″N   79°32′23″E
темп.,
°C
ветер,
м/с
пор.,
м/с
влажн.,
%
обл.,
%
осадки,
мм/ч
давл.,
гПа
погр.,
м
28 июня, вт
вт2801:00+11з410855 0.1 1004309
04:00+10зюз510885 0.0 1006286
07:00+11зюз49873 0.0 1007342
10:00+16з576192 0.0 10081418
13:00+16зюз4656100 0.0 10081389
16:00+18з354999 0.0 10081490
19:00+20сз2447100 0.0 1007996
22:00+15всв2264100 0.0 100613
29 июня, ср
ср2901:00+13в45692 0.0 100574
04:00+13юв48710 0.0 1003123
07:00+14ююв410682 0.0 1000187
10:00+21ююв61050100 0.0 997515
13:00+24ююз6842100 0.0 9951117
16:00+27ююз61033100 0.0 9922416
19:00+13зсз121785100 0.4 996759
22:00+11зсз510850 1.5 998451
30 июня, чт
чт3001:00+8юз4108854 1.5 999211
04:00+8юз5108538 0.0 1000258
07:00+9юз7117899 0.0 10021020
10:00+12зюз7960100 0.0 10021511
13:00+15зюз794817 0.0 10031651
16:00+17з784610 0.0 10031632
19:00+17з674313 0.0 10041867
22:00+11зсз47681 0.0 1005147
1 июля, пт
пт101:00+9зюз34725 0.0 100664
04:00+8зюз37780 0.0 1006107
07:00+10зюз38770 0.0 1006223
10:00+16з58520 0.0 10061263
13:00+20з794481 0.0 10062174
16:00+19зюз794898 0.0 10061339
19:00+18з6105296 0.0 1006696
22:00+14ссз34722 0.0 100788
2 июля, сб
сб201:00+11з22845 0.0 100817
04:00+10зюз35903 0.0 100783
07:00+11з498762 0.0 1007343
10:00+15з576974 0.0 1007825
13:00+18з565956 0.3 10071434
16:00+19зсз46528 0.7 10061399
19:00+20сз45475 0.7 10041318
22:00+14с12704 0.0 100410